Location: Unspecified
(44.0704°N, 88.6889°W)
Time: 11:21:39
(UTC+02:00)

Transit 2A - Pass Details

Date: 17 June 2019
Orbit: 594 x 964 km, 66.7° (Epoch: 19 July)

Event Time Altitude Azimuth Distance (km) Brightness Sun altitude
Rises 15:32:59 0° 332° (NNW) 3,556 9.2 33.2°
Reaches altitude 10° 15:37:30 10° 2° (N) 2,531 8.8 34.0°
Maximum altitude 15:39:42 12° 25° (NNE) 2,339 8.9 34.4°
Drops below altitude 10° 15:41:50 10° 47° (NE) 2,436 9.4 34.8°
Sets 15:45:57 0° 78° (ENE) 3,265 10.2 35.5°
